Home   Weather   Douglas   Past weeks

Flag for Isle of Man Past Weather in Douglas, Isle of Man — Yesterday and Last 2 Weeks

Now
61 °F

Passing clouds.


Feels Like: 61 °F
Forecast: 55 / 62 °F
Wind: 16 mph from Southwest

Location: Isle Of Man / Ronaldsway Airport

Current Time: Aug 31, 2016 at 3:25:40 AM

Latest Report: Aug 31, 2016 at 1:50 AM


Visibility: N/A

Pressure: 30.01 "Hg

Humidity: 88%

Dew Point: 57 °F

Location of DouglasLocation

Past Weather in Douglas — Graph

°F

Douglas Temperature Yesterday

Maximum temperature yesterday: 64 °F (at 2:20 PM)
Minimum temperature yesterday: 57 °F (at 8:20 AM)
Average temperature yesterday: 61 °F

High & Low Weather Summary for the Past Weeks

 TemperatureHumidityPressure
High68 °F (Aug 16, 4:50 PM)100% (Aug 19, 6:20 AM)30.18 "Hg (Aug 19, 6:20 AM)
Low52 °F (Aug 24, 10:50 PM)52% (Aug 24, 4:50 PM)29.12 "Hg (Aug 20, 11:50 AM)
Average61 °F85%29.94 "Hg
* Reported Aug 16 1:50 AM — Aug 31 1:50 AM, Douglas, Weather by CustomWeather, © 2016

Note: Actual official high and low records may vary slightly from our data, if they occured in-between our weather recording intervals... More about our weather records

Advertising

Douglas Weather History for the Previous 24 Hours

Scroll right to see more
 ConditionsComfort  
Time TempWeatherWind HumidityBarometerVisibility
1:50 AM
Wed, Aug 31
61 °FPassing clouds.16 mph88%30.01 "HgN/A
12:50 AM61 °FPassing clouds.17 mph88%30.01 "HgN/A
11:50 PM
Tue, Aug 30
61 °FPassing clouds.16 mph88%30.04 "HgN/A
10:50 PM61 °FPassing clouds.22 mph88%30.04 "HgN/A
9:50 PM61 °FPassing clouds.18 mph88%30.07 "HgN/A
9:20 PM61 °FPassing clouds.20 mph94%30.07 "HgN/A
8:50 PM61 °FPartly sunny.20 mph94%30.07 "HgN/A
8:20 PM61 °FScattered clouds.21 mph94%30.07 "HgN/A
7:50 PM61 °FPassing clouds.20 mph94%30.07 "HgN/A
7:20 PM61 °FPassing clouds.21 mph94%30.07 "HgN/A
6:50 PM61 °FScattered clouds.18 mph88%30.09 "HgN/A
6:20 PM63 °FScattered clouds.16 mph83%30.09 "HgN/A
5:50 PM63 °FPassing clouds.21 mph83%30.09 "HgN/A
5:20 PM63 °FPassing clouds.18 mph83%30.09 "HgN/A
4:50 PM63 °FPassing clouds.15 mph83%30.09 "HgN/A
4:20 PM63 °FScattered clouds.14 mph83%30.12 "HgN/A
3:50 PM64 °FPartly sunny.13 mph78%30.12 "HgN/A
3:20 PM63 °FPartly sunny.17 mph83%30.12 "HgN/A
2:50 PM64 °FPartly sunny.15 mph83%30.15 "HgN/A
2:20 PM64 °FPartly sunny.16 mph83%30.15 "HgN/A
1:50 PM63 °FPartly sunny.15 mph83%30.15 "HgN/A
1:20 PM61 °FPartly sunny.16 mph88%30.15 "HgN/A
12:50 PM61 °FOvercast.16 mph88%30.18 "HgN/A
12:20 PM61 °FLow clouds.16 mph88%30.18 "HgN/A
11:50 AM61 °FLow clouds.17 mph88%30.18 "HgN/A
11:20 AM61 °FMostly cloudy.15 mph88%30.18 "HgN/A
10:50 AM61 °FMore clouds than sun.14 mph94%30.18 "HgN/A
10:20 AM61 °FMore clouds than sun.10 mph94%30.18 "HgN/A
9:50 AM61 °FMostly cloudy.16 mph94%30.18 "Hg5 mi
9:20 AM59 °FFog.12 mph100%30.18 "Hg3 mi
8:50 AM59 °FFog.15 mph100%30.18 "Hg2 mi
8:20 AM57 °FFog.15 mph100%30.18 "Hg0 mi
7:50 AM59 °FFog.13 mph100%30.18 "Hg0 mi
7:20 AM59 °FFog.12 mph100%30.18 "Hg0 mi
6:50 AM59 °FFog.13 mph100%30.15 "Hg0 mi
6:20 AM59 °FFog.13 mph100%30.15 "Hg0 mi
5:50 AM59 °FFog.12 mph100%30.15 "Hg0 mi
5:20 AM59 °FFog.13 mph100%30.15 "Hg0 mi
4:50 AM59 °FFog.13 mph100%30.15 "Hg0 mi
3:50 AM59 °FFog.13 mph100%30.18 "Hg0 mi
Weather by CustomWeather, © 2016

See weather overviewHow to use our weather pages